sat.trackr.live / text

‹ back to catalog

STARLINK-36530

NORAD 67514 · 2026-012X

PAYLOAD ACTIVE UNKNOWN

§ Identity

Operator
Country
US
Launch date
2026-01-18
Launch site
AFETR
Launch vehicle
Mass (kg)
RCS (m²)

Purposes: comms

External: N2YO · Heavens-Above · Gunter

§ Orbital elements

Epoch: 2026-05-24T14:50:55.736160Z

Period
94.27 min
Inclination
43.0009°
Eccentricity
0.0001485
Mean motion
15.27591037 rev/d
Perigee alt
482.0 km
Apogee alt
484.0 km
Semi-major
6,861.2 km
B*
5.4970e-4
RAAN
245.6475°
Arg perigee
274.3199°
Mean anomaly
85.7483°
Rev number
1,937

§ Raw data

STARLINK-365301 67514U 26012X   26144.61870065  .00014900  00000+0  54970-3 0  99952 67514  43.0009 245.6475 0001485 274.3199  85.7483 15.27591037 19372

JSON: /api/v1/satellites/67514 · /tle

For live sub-satellite position, see the globe view (requires WebGL).

§ Visibility from observer

Set your observer location to see the next 7 days of passes ≥ 10°. The values pass through the URL so the page stays shareable.

No JS? Fill the form by hand. The geolocation button needs JavaScript.